EW1937 Weather Reports


time (UTC)temp
F
wind
direction
speed
knots
gust
knots
rain 1hr
in
rain 24hr
in
rain mn
in
humidity
%
barometer
mb
20260906224523 64 335 0.0 0.0 0.00 0.04 0.00 80 910.2
20260906223023 63 300 0.0 0.0 0.00 0.04 0.00 81 910.2
20260906221520 63 309 0.0 0.0 0.00 0.04 0.00 81 910.2
20260906220020 63 321 0.0 0.0 0.00 0.04 0.00 81 910.2
20260906214517 63 335 0.0 0.0 0.00 0.04 0.00 81 910.1
20260906213016 64 326 0.0 0.0 0.00 0.04 0.00 80 910.1
20260906211515 64 317 0.0 0.0 0.00 0.04 0.00 79 910.2
20260906210015 64 44 0.0 0.0 0.00 0.04 0.00 80 910.3
20260906204600 64 322 0.0 0.0 0.00 0.04 0.00 79 910.2
20260906203053 64 313 0.0 0.0 0.00 0.04 0.00 80 910.3
20260906201542 64 33 0.0 0.0 0.00 0.04 0.00 80 910.3
20260906200033 64 64 0.0 0.0 0.00 0.04 0.00 80 910.3
20260906194517 63 28 0.0 0.0 0.00 0.04 0.04 82 910.4
20260906193013 62 34 0.0 0.0 0.00 0.04 0.04 83 910.4
20260906191510 61 15 0.0 0.0 0.00 0.04 0.04 83 910.4
20260906190004 60 27 0.0 0.0 0.00 0.04 0.04 85 910.7
20260906184611 60 34 0.0 0.0 0.00 0.04 0.04 85 911.0
20260906183104 59 345 0.0 0.0 0.00 0.04 0.04 87 911.1
20260906181556 57 303 0.0 0.0 0.00 0.04 0.04 88 911.4
20260906180104 57 319 0.0 0.0 0.00 0.04 0.04 89 912.0
20260906174531 56 330 0.0 0.0 0.00 0.04 0.04 90 912.2
20260906173027 56 319 0.0 0.0 0.00 0.04 0.04 90 912.4
20260906171522 56 321 0.0 0.0 0.00 0.04 0.04 91 912.5
20260906170017 56 13 0.0 0.0 0.00 0.04 0.04 93 912.5
20260906164512 55 340 0.0 0.0 0.00 0.04 0.04 92 912.6
20260906163008 56 322 0.0 0.0 0.00 0.04 0.04 91 912.5
20260906161503 56 311 0.0 0.0 0.00 0.04 0.04 90 912.7
20260906160059 56 303 0.0 0.0 0.00 0.04 0.04 90 912.9
20260906154554 57 271 0.0 0.0 0.03 0.04 0.04 91 913.0
20260906153041 59 332 0.0 0.0 0.03 0.04 0.04 91 912.8
20260906151527 59 330 0.0 0.0 0.03 0.04 0.04 93 912.6
20260906150013 58 335 0.0 0.0 0.03 0.04 0.04 93 912.3
20260906144511 58 322 0.0 0.0 0.00 0.01 0.01 92 913.1
20260906143006 58 293 0.0 0.0 0.00 0.01 0.01 93 913.0
20260906141502 57 268 0.0 0.0 0.00 0.01 0.01 94 912.8
20260906140058 56 319 0.0 0.0 0.00 0.01 0.01 94 912.6
20260906134553 56 308 0.0 0.0 0.00 0.01 0.01 94 912.6
20260906133057 55 313 0.0 0.0 0.00 0.01 0.01 93 912.5
20260906131559 0 0.0 0.0 0.00 0.01 0.01 912.7
20260906130028 0 0.0 0.0 0.00 0.01 0.01 912.5
20260906124524 0 0.0 0.0 0.00 0.01 0.01 912.8
20260906123023 0 0.0 0.0 0.00 0.01 0.01 912.9
20260906121531 -90 314 0.0 0.0 0.00 0.01 0.01 94 913.0
20260906120012 56 314 0.0 0.0 0.00 0.01 0.01 93 912.9
20260906114520 56 316 0.0 0.0 0.00 0.01 0.01 93 913.0
20260906113011 56 45 0.0 0.0 0.00 0.01 0.01 93 912.8
20260906111510 56 42 0.0 0.0 0.00 0.01 0.01 93 912.9
20260906110051 56 34 0.0 0.0 0.00 0.01 0.01 93 912.8
20260906104552 55 36 0.0 0.0 0.00 0.01 0.01 93 913.0
20260906103046 55 37 0.0 0.0 0.00 0.01 0.01 93 913.1
20260906101539 55 37 0.0 0.0 0.00 0.01 0.01 94 913.1
20260906100038 55 354 0.0 0.0 0.00 0.01 0.01 93 913.1
20260906094542 55 319 0.0 0.0 0.00 0.01 0.01 93 913.3
20260906093036 55 324 0.0 0.0 0.00 0.01 0.01 93 913.6
20260906091536 55 311 0.0 0.0 0.00 0.01 0.01 93 913.6
20260906090038 55 310 0.0 0.0 0.00 0.01 0.01 93 913.7
20260906084531 55 315 0.0 0.0 0.00 0.01 0.01 92 913.8
20260906083019 55 18 0.0 0.0 0.00 0.01 0.01 92 913.8
20260906081522 55 320 0.0 0.0 0.00 0.01 0.01 92 913.9
20260906080023 55 320 0.0 0.0 0.00 0.01 0.01 92 913.9
20260906074517 55 317 0.0 0.0 0.00 0.01 0.01 92 914.2
20260906073017 55 341 0.0 0.0 0.00 0.01 0.01 91 914.3
20260906071524 56 311 0.0 0.0 0.00 0.01 0.01 91 914.6
20260906070013 56 323 0.0 0.0 0.00 0.01 0.01 90 914.9
20260906064513 56 319 0.0 0.0 0.00 0.01 0.01 89 914.9
20260906063100 56 334 0.0 0.0 0.00 0.01 0.01 89 914.7
20260906061600 56 335 0.0 0.0 0.00 0.01 0.01 89 914.7
20260906060134 56 15 0.0 0.0 0.00 0.01 0.01 89 914.6
20260906054611 56 317 0.0 0.0 0.00 0.01 0.01 91 914.7
20260906053057 56 323 0.0 0.0 0.00 0.01 0.01 91 914.7
20260906051558 56 293 0.0 0.0 0.00 0.01 0.01 90 915.3
20260906050054 56 316 0.0 0.0 0.01 0.01 0.01 90 914.3
20260906044552 57 320 0.0 0.0 0.01 0.01 0.01 89 914.0
20260906043039 57 312 0.0 0.0 0.01 0.01 0.01 87 914.0
20260906041536 57 325 0.0 0.0 0.01 0.01 0.01 84 914.3
20260906040035 59 331 0.0 0.0 0.00 0.00 0.00 75 914.1
20260906034550 59 314 0.0 0.0 0.00 0.00 0.00 77 914.4
20260906033031 59 336 0.0 0.0 0.00 0.00 0.00 76 913.7
20260906031529 59 337 0.0 0.0 0.00 0.00 0.00 75 913.5
20260906030024 60 328 0.0 0.0 0.00 0.00 0.00 73 913.4
20260906024519 60 315 0.0 0.0 0.00 0.00 0.00 72 913.1
20260906023006 60 332 0.0 0.0 0.00 0.00 0.00 71 913.0
20260906021505 61 79 0.0 0.0 0.00 0.00 0.00 70 913.1
20260906020002 61 328 0.0 0.0 0.00 0.00 0.00 68 913.1
20260906014602 62 316 0.0 0.0 0.00 0.00 0.00 67 913.1
20260906013057 63 346 0.0 0.0 0.00 0.00 0.00 66 912.8
20260906011555 63 347 0.0 0.0 0.00 0.00 0.00 65 912.9
20260906010128 64 328 0.0 0.0 0.00 0.00 0.00 63 913.0
20260906004605 65 338 0.0 0.0 0.00 0.00 0.00 62 912.7
20260906003028 66 321 0.0 0.0 0.00 0.00 0.00 61 912.7
20260906001542 66 311 0.0 0.0 0.00 0.00 0.00 60 912.9
20260906000011 68 307 0.0 0.0 0.00 0.00 0.00 57 913.0
20260905234508 70 323 0.0 0.0 0.00 0.00 0.00 52 913.0
20260905233005 70 324 0.0 0.0 0.00 0.00 0.00 50 912.8
20260905231511 70 321 0.0 0.0 0.00 0.00 0.00 49 912.7
20260905230002 72 322 0.0 0.0 0.00 0.00 0.00 45 912.6